Time,TemperatureF,DewpointF,PressureIn,WindDirection,WindDirectionDegrees,WindSpeedMPH,WindSpeedGustMPH,Humidity,HourlyPrecipIn,Conditions,Clouds,dailyrainin,SolarRadiationWatts/m^2,SoftwareType,DateUTC
2013-03-04 00:01:00,27.0,1.0,-100.00,SE,128,10.0,17.0,32,0.00,,,0.00,0.000000,,2013-03-04 06:01:00,
2013-03-04 00:32:00,26.0,7.0,-100.00,ESE,113,9.0,16.0,43,0.00,,,0.00,0.000000,,2013-03-04 06:32:00,
2013-03-04 00:42:00,26.0,7.0,-100.00,ESE,113,9.0,16.0,43,0.00,,,0.00,0.000000,,2013-03-04 06:42:00,
2013-03-04 00:52:00,26.0,7.0,-100.00,ESE,113,9.0,16.0,43,0.00,,,0.00,0.000000,,2013-03-04 06:52:00,
2013-03-04 01:01:00,26.0,7.0,-100.00,ESE,113,9.0,16.0,43,0.00,,,0.00,0.000000,,2013-03-04 07:01:00,
2013-03-04 01:32:00,25.0,9.0,-100.00,SE,126,9.0,14.0,50,0.00,,,0.00,0.000000,,2013-03-04 07:32:00,
2013-03-04 01:42:00,25.0,9.0,-100.00,SE,126,9.0,14.0,50,0.00,,,0.00,0.000000,,2013-03-04 07:42:00,
2013-03-04 01:52:00,25.0,9.0,-100.00,SE,126,9.0,14.0,50,0.00,,,0.00,0.000000,,2013-03-04 07:52:00,
2013-03-04 02:02:00,25.0,9.0,-100.00,SE,126,9.0,14.0,50,0.00,,,0.00,0.000000,,2013-03-04 08:02:00,
2013-03-04 02:32:00,24.0,8.0,-100.00,ESE,122,11.0,17.0,49,0.00,,,0.00,0.000000,,2013-03-04 08:32:00,
2013-03-04 02:42:00,24.0,8.0,-100.00,ESE,122,11.0,17.0,49,0.00,,,0.00,0.000000,,2013-03-04 08:42:00,
2013-03-04 02:52:00,24.0,8.0,-100.00,ESE,122,11.0,17.0,49,0.00,,,0.00,0.000000,,2013-03-04 08:52:00,
2013-03-04 03:01:00,24.0,8.0,-100.00,ESE,122,11.0,17.0,49,0.00,,,0.00,0.000000,,2013-03-04 09:01:00,
2013-03-04 03:32:00,23.0,6.0,-100.00,ESE,121,10.0,17.0,47,0.00,,,0.00,0.000000,,2013-03-04 09:32:00,
2013-03-04 03:42:00,23.0,6.0,-100.00,ESE,121,10.0,17.0,47,0.00,,,0.00,0.000000,,2013-03-04 09:42:00,
2013-03-04 03:52:00,23.0,6.0,-100.00,ESE,121,10.0,17.0,47,0.00,,,0.00,0.000000,,2013-03-04 09:52:00,
2013-03-04 04:01:00,23.0,6.0,-100.00,ESE,121,10.0,17.0,47,0.00,,,0.00,0.000000,,2013-03-04 10:01:00,
2013-03-04 04:32:00,23.0,5.0,-100.00,ESE,117,10.0,17.0,46,0.00,,,0.00,0.000000,,2013-03-04 10:32:00,
2013-03-04 04:42:00,23.0,5.0,-100.00,ESE,117,10.0,17.0,46,0.00,,,0.00,0.000000,,2013-03-04 10:42:00,
2013-03-04 04:52:00,23.0,5.0,-100.00,ESE,117,10.0,17.0,46,0.00,,,0.00,0.000000,,2013-03-04 10:52:00,
2013-03-04 05:02:00,23.0,5.0,-100.00,ESE,117,10.0,17.0,46,0.00,,,0.00,0.000000,,2013-03-04 11:02:00,
2013-03-04 05:32:00,22.0,6.0,-100.00,ESE,119,10.0,17.0,49,0.00,,,0.00,0.000000,,2013-03-04 11:32:00,
2013-03-04 05:42:00,22.0,6.0,-100.00,ESE,119,10.0,17.0,49,0.00,,,0.00,0.000000,,2013-03-04 11:42:00,
2013-03-04 05:52:00,22.0,6.0,-100.00,ESE,119,10.0,17.0,49,0.00,,,0.00,0.000000,,2013-03-04 11:52:00,
2013-03-04 06:01:00,22.0,6.0,-100.00,ESE,119,10.0,17.0,49,0.00,,,0.00,0.000000,,2013-03-04 12:01:00,
2013-03-04 06:32:00,22.0,6.0,-100.00,ESE,119,9.0,16.0,50,0.00,,,0.00,0.000000,,2013-03-04 12:32:00,
2013-03-04 06:42:00,22.0,6.0,-100.00,ESE,119,9.0,16.0,50,0.00,,,0.00,0.000000,,2013-03-04 12:42:00,
2013-03-04 06:53:00,22.0,6.0,-100.00,ESE,119,9.0,16.0,50,0.00,,,0.00,0.000000,,2013-03-04 12:53:00,
2013-03-04 07:02:00,22.0,6.0,-100.00,ESE,119,9.0,16.0,50,0.00,,,0.00,0.000000,,2013-03-04 13:02:00,
2013-03-04 07:32:00,22.0,6.0,-100.00,ESE,123,10.0,16.0,50,0.00,,,0.00,1.000000,,2013-03-04 13:32:00,
2013-03-04 07:42:00,22.0,6.0,-100.00,ESE,123,10.0,16.0,50,0.00,,,0.00,1.000000,,2013-03-04 13:42:00,
2013-03-04 07:52:00,22.0,6.0,-100.00,ESE,123,10.0,16.0,50,0.00,,,0.00,1.000000,,2013-03-04 13:52:00,
2013-03-04 08:01:00,22.0,6.0,-100.00,ESE,123,10.0,16.0,50,0.00,,,0.00,1.000000,,2013-03-04 14:01:00,
2013-03-04 08:32:00,21.0,11.0,-100.00,SE,124,10.0,15.0,64,0.00,,,0.00,31.000000,,2013-03-04 14:32:00,
2013-03-04 08:42:00,21.0,11.0,-100.00,SE,124,10.0,15.0,64,0.00,,,0.00,31.000000,,2013-03-04 14:42:00,
2013-03-04 08:52:00,21.0,11.0,-100.00,SE,124,10.0,15.0,64,0.00,,,0.00,31.000000,,2013-03-04 14:52:00,
2013-03-04 09:01:00,21.0,11.0,-100.00,SE,124,10.0,15.0,64,0.00,,,0.00,31.000000,,2013-03-04 15:01:00,
2013-03-04 09:32:00,21.0,12.0,-100.00,ESE,120,12.0,19.0,67,0.00,,,0.00,113.000000,,2013-03-04 15:32:00,
2013-03-04 09:42:00,21.0,12.0,-100.00,ESE,120,12.0,19.0,67,0.00,,,0.00,113.000000,,2013-03-04 15:42:00,
2013-03-04 09:52:00,21.0,12.0,-100.00,ESE,120,12.0,19.0,67,0.00,,,0.00,113.000000,,2013-03-04 15:52:00,
2013-03-04 10:02:00,21.0,12.0,-100.00,ESE,120,12.0,19.0,67,0.00,,,0.00,113.000000,,2013-03-04 16:02:00,
2013-03-04 10:32:00,23.0,15.0,-100.00,ESE,115,13.0,19.0,72,0.00,,,0.00,216.000000,,2013-03-04 16:32:00,
2013-03-04 10:42:00,23.0,15.0,-100.00,ESE,115,13.0,19.0,72,0.00,,,0.00,216.000000,,2013-03-04 16:42:00,
2013-03-04 10:52:00,23.0,15.0,-100.00,ESE,115,13.0,19.0,72,0.00,,,0.00,216.000000,,2013-03-04 16:52:00,
2013-03-04 11:02:00,23.0,15.0,-100.00,ESE,115,13.0,19.0,72,0.00,,,0.00,216.000000,,2013-03-04 17:02:00,
2013-03-04 11:32:00,23.0,16.0,-100.00,ESE,116,17.0,26.0,73,0.00,,,0.00,269.000000,,2013-03-04 17:32:00,
2013-03-04 11:42:00,23.0,16.0,-100.00,ESE,116,17.0,26.0,73,0.00,,,0.00,269.000000,,2013-03-04 17:42:00,
2013-03-04 11:52:00,23.0,16.0,-100.00,ESE,116,17.0,26.0,73,0.00,,,0.00,269.000000,,2013-03-04 17:52:00,
2013-03-04 12:01:00,23.0,16.0,-100.00,ESE,116,17.0,26.0,73,0.00,,,0.00,269.000000,,2013-03-04 18:01:00,
2013-03-04 12:32:00,24.0,16.0,-100.00,ESE,116,12.0,25.0,72,0.00,,,0.00,221.000000,,2013-03-04 18:32:00,
2013-03-04 12:42:00,24.0,16.0,-100.00,ESE,116,12.0,25.0,72,0.00,,,0.00,221.000000,,2013-03-04 18:42:00,
2013-03-04 12:52:00,24.0,16.0,-100.00,ESE,116,12.0,25.0,72,0.00,,,0.00,221.000000,,2013-03-04 18:52:00,
2013-03-04 13:02:00,24.0,16.0,-100.00,ESE,116,12.0,25.0,72,0.00,,,0.00,221.000000,,2013-03-04 19:02:00,
2013-03-04 13:32:00,25.0,18.0,-100.00,ESE,120,15.0,24.0,73,0.00,,,0.00,157.000000,,2013-03-04 19:32:00,
2013-03-04 13:42:00,25.0,18.0,-100.00,ESE,120,15.0,24.0,73,0.00,,,0.00,157.000000,,2013-03-04 19:42:00,
2013-03-04 13:52:00,25.0,18.0,-100.00,ESE,120,15.0,24.0,73,0.00,,,0.00,157.000000,,2013-03-04 19:52:00,
2013-03-04 14:02:00,25.0,18.0,-100.00,ESE,120,15.0,24.0,73,0.00,,,0.00,157.000000,,2013-03-04 20:02:00,
2013-03-04 14:32:00,25.0,18.0,-100.00,SE,136,11.0,21.0,73,0.00,,,0.00,134.000000,,2013-03-04 20:32:00,
2013-03-04 14:42:00,25.0,18.0,-100.00,SE,136,11.0,21.0,73,0.00,,,0.00,134.000000,,2013-03-04 20:42:00,
2013-03-04 14:52:00,25.0,18.0,-100.00,SE,136,11.0,21.0,73,0.00,,,0.00,134.000000,,2013-03-04 20:52:00,
2013-03-04 15:02:00,25.0,18.0,-100.00,SE,136,11.0,21.0,73,0.00,,,0.00,134.000000,,2013-03-04 21:02:00,
2013-03-04 15:32:00,26.0,17.0,-100.00,SE,136,11.0,18.0,68,0.00,,,0.00,78.000000,,2013-03-04 21:32:00,
2013-03-04 15:43:00,26.0,17.0,-100.00,SE,136,11.0,18.0,68,0.00,,,0.00,78.000000,,2013-03-04 21:43:00,
2013-03-04 15:53:00,26.0,17.0,-100.00,SE,136,11.0,18.0,68,0.00,,,0.00,78.000000,,2013-03-04 21:53:00,
2013-03-04 16:02:00,26.0,17.0,-100.00,SE,136,11.0,18.0,68,0.00,,,0.00,78.000000,,2013-03-04 22:02:00,
2013-03-04 16:32:00,25.0,18.0,-100.00,SE,129,10.0,19.0,74,0.00,,,0.00,47.000000,,2013-03-04 22:32:00,
2013-03-04 16:43:00,25.0,18.0,-100.00,SE,129,10.0,19.0,74,0.00,,,0.00,47.000000,,2013-03-04 22:43:00,
2013-03-04 16:52:00,25.0,18.0,-100.00,SE,129,10.0,19.0,74,0.00,,,0.00,47.000000,,2013-03-04 22:52:00,
2013-03-04 17:02:00,25.0,18.0,-100.00,SE,129,10.0,19.0,74,0.00,,,0.00,47.000000,,2013-03-04 23:02:00,
2013-03-04 17:32:00,24.0,17.0,-100.00,SE,127,11.0,17.0,73,0.00,,,0.00,28.000000,,2013-03-04 23:32:00,
2013-03-04 17:42:00,24.0,17.0,-100.00,SE,127,11.0,17.0,73,0.00,,,0.00,28.000000,,2013-03-04 23:42:00,
2013-03-04 17:52:00,24.0,17.0,-100.00,SE,127,11.0,17.0,73,0.00,,,0.00,28.000000,,2013-03-04 23:52:00,
2013-03-04 18:02:00,24.0,17.0,-100.00,SE,127,11.0,17.0,73,0.00,,,0.00,28.000000,,2013-03-05 00:02:00,
2013-03-04 18:32:00,24.0,18.0,-100.00,SE,125,10.0,17.0,79,0.00,,,-99.99,9.000000,,2013-03-05 00:32:00,
2013-03-04 18:42:00,24.0,18.0,-100.00,SE,125,10.0,17.0,79,0.00,,,-99.99,9.000000,,2013-03-05 00:42:00,
2013-03-04 18:52:00,24.0,18.0,-100.00,SE,125,10.0,17.0,79,0.00,,,-99.99,9.000000,,2013-03-05 00:52:00,
2013-03-04 19:01:00,24.0,18.0,-100.00,SE,125,10.0,17.0,79,0.00,,,-99.99,9.000000,,2013-03-05 01:01:00,
2013-03-04 20:32:00,23.0,20.0,-100.00,ESE,121,9.0,13.0,89,-99.99,,,0.00,0.000000,,2013-03-05 02:32:00,
2013-03-04 20:42:00,23.0,20.0,-100.00,ESE,121,9.0,13.0,89,-99.99,,,0.00,0.000000,,2013-03-05 02:42:00,
2013-03-04 20:52:00,23.0,20.0,-100.00,ESE,121,9.0,13.0,89,-99.99,,,0.00,0.000000,,2013-03-05 02:52:00,
2013-03-04 21:02:00,23.0,20.0,-100.00,ESE,121,9.0,13.0,89,-99.99,,,0.00,0.000000,,2013-03-05 03:02:00,
2013-03-04 21:32:00,23.0,21.0,-100.00,SE,133,7.0,11.0,90,0.00,,,0.00,0.000000,,2013-03-05 03:32:00,
2013-03-04 21:42:00,23.0,21.0,-100.00,SE,133,7.0,11.0,90,0.00,,,0.00,0.000000,,2013-03-05 03:42:00,
2013-03-04 21:52:00,23.0,21.0,-100.00,SE,133,7.0,11.0,90,0.00,,,0.00,0.000000,,2013-03-05 03:52:00,
2013-03-04 22:01:00,23.0,21.0,-100.00,SE,133,7.0,11.0,90,0.00,,,0.00,0.000000,,2013-03-05 04:01:00,
2013-03-04 22:32:00,23.0,20.0,-100.00,ESE,120,8.0,12.0,89,0.00,,,0.00,0.000000,,2013-03-05 04:32:00,
2013-03-04 22:42:00,23.0,20.0,-100.00,ESE,120,8.0,12.0,89,0.00,,,0.00,0.000000,,2013-03-05 04:42:00,
2013-03-04 22:52:00,23.0,20.0,-100.00,ESE,120,8.0,12.0,89,0.00,,,0.00,0.000000,,2013-03-05 04:52:00,
2013-03-04 23:02:00,23.0,20.0,-100.00,ESE,120,8.0,12.0,89,0.00,,,0.00,0.000000,,2013-03-05 05:02:00,
2013-03-04 23:32:00,23.0,21.0,-100.00,ESE,114,4.0,14.0,91,0.00,,,0.00,0.000000,,2013-03-05 05:32:00,
2013-03-04 23:42:00,23.0,21.0,-100.00,ESE,114,4.0,14.0,91,0.00,,,0.00,0.000000,,2013-03-05 05:42:00,
2013-03-04 23:52:00,23.0,21.0,-100.00,ESE,114,4.0,14.0,91,0.00,,,0.00,0.000000,,2013-03-05 05:52:00,